Location: Big Sky Observatory Site
(50.2333°N, 113.4000°W)
Time: 16:29:52
(UTC-07:00)

Envisat - Visible Passes

Search period start: 19 February 2018 00:00
Search period end: 01 March 2018 00:00
Orbit: 764 x 766 km, 98.2° (Epoch: 19 February)

Date Brightness Start Highest point End Pass type
(mag) Time Alt. Az. Time Alt. Az. Time Alt. Az.
19 Feb 2.9 19:50:57 10° SSE 19:56:02 90° E 20:01:10 10° NNW visible
19 Feb 5.8 21:33:04 10° WSW 21:35:48 14° W 21:38:32 10° NW visible
20 Feb 3.2 19:14:35 10° SE 19:19:25 46° ENE 19:24:17 10° N visible
20 Feb 4.8 20:54:16 10° SSW 20:58:38 28° W 21:03:02 10° NW visible
21 Feb 4.0 18:38:52 10° ESE 18:42:58 25° ENE 18:47:04 10° N visible
21 Feb 3.6 20:16:41 10° S 20:21:40 56° W 20:26:42 10° NNW visible
22 Feb 2.9 19:39:51 10° SSE 19:44:54 74° ENE 19:50:01 10° N visible
22 Feb 5.5 21:21:07 10° SW 21:24:30 18° W 21:27:55 10° NW visible
23 Feb 3.5 19:03:40 10° SE 19:08:20 38° ENE 19:13:02 10° N visible
23 Feb 4.5 20:42:47 10° SSW 20:47:24 35° W 20:52:03 10° NNW visible
24 Feb 3.3 20:05:27 10° S 20:10:30 69° WSW 20:15:36 10° NNW visible
24 Feb 6.0 21:49:36 10° W 21:50:30 10° W 21:51:24 10° WNW visible
25 Feb 3.0 19:28:48 10° SSE 19:33:48 61° ENE 19:38:49 10° N visible
25 Feb 5.3 21:09:22 10° SW 21:13:14 22° W 21:17:08 10° NW visible
26 Feb 3.7 18:52:49 10° SE 18:57:17 32° ENE 19:01:46 10° N visible
26 Feb 4.2 20:31:24 10° SSW 20:36:12 42° W 20:41:02 10° NNW visible
27 Feb 3.0 19:54:16 10° SSE 19:59:21 84° WSW 20:04:29 10° NNW visible
27 Feb 5.8 21:36:48 10° WSW 21:39:10 13° W 21:41:34 10° WNW visible
28 Feb 3.2 19:17:49 10° SE 19:22:42 50° ENE 19:27:37 10° N visible
28 Feb 5.0 20:57:45 10° SSW 21:01:59 26° W 21:06:15 10° NW visible
